Terminal Aerodrome Forecast
Issued by NWS

Home | Current Version | Previous Version | Text Only | Print | Product List | Glossary On
Versions: 1 2 3 4 5 6 7 8 9 10 11 12 13 14 15 16 17 18 19 20 21 22
000
FTUS45 KFGZ 311600 AAB
TAFGCN
TAF AMD
KGCN 311611Z 3116/0112 VRB03KT P6SM FEW005 BKN015 BKN025
     FM311800 VRB05KT P6SM BKN025
     FM010200 02008KT P6SM FEW025
      TEMPO 0108/0112 1SM BR FEW002 OVC006=

USA.gov is the U.S. government's official web portal to all federal, state and local government web resources and services.